Temp
71 72 74 74 74 73 73 71 73 73 73 71 71 70 73 74 71 68 67 69 69 75 79 75 77 80 78 74 74 73 74 67 66 73 70 68 66 56 54 54 54 53 53 53 53 52 53 54 55 57 57 57 57 56 55 54 55 55 57 57 56 56 55 55 55 58 59 59 58 56 56 56 57 57
76 75 74 73 74 73 72 69 73 72 70 68 70 69 75 76 73 71 68 67 72 73 77 78 76 78 77 76 74 76 74 65 69 76 73 70 68 54 54 53 52 52 53 52 51 51 52 54 55 57 56 55 55 54 54 54 55 56 56 56 57 57 57 55 57 59 59 58 58 57 56 56 56 57
75 75 75 75 73 73 70 74 71 72 70 68 70 75 78 77 75 73 72 67 72 77 73 77 80 78 78 78 76 77 76 70 69 75 72 74 60 55 58 52 53 53 53 51 50 51 52 52 53 54 55 56 56 56 56 55 55 58 55 53 55 57 57 55 56 58 58 58 57 57 56 56 56 56
76 75 75 74 74 73 74 75 75 73 74 73 74 75 76 76 77 74 73 71 69 76 76 77 79 79 76 79 77 76 76 73 62 76 75 70 58 66 67 52 53 54 53 51 52 55 56 55 54 55 55 52 53 54 53 54 57 55 53 52 54 55 55 55 54 56 57 56 56 56 55 55 55 55
76 77 76 76 76 77 76 74 76 76 74 75 74 75 75 75 77 75 73 71 70 74 78 77 78 78 78 78 79 77 74 72 73 71 75 69 69 70 72 67 54 53 53 51 51 51 51 50 53 52 51 49 48 51 50 52 54 53 50 51 50 51 54 54 52 52 54 54 55 54 54 54 54 55
76 75 75 76 76 78 76 76 79 80 75 75 74 73 74 78 77 77 77 73 72 69 74 76 79 77 79 77 80 76 72 72 74 76 75 73 74 74 75 73 66 52 53 52 50 51 50 49 50 48 47 48 49 50 49 48 48 52 48 48 48 53 53 53 51 49 50 52 53 53 53 53 53 54
77 75 75 76 76 76 75 75 75 76 78 78 76 76 79 79 78 80 81 74 72 71 72 75 76 75 77 76 78 79 77 75 76 76 76 76 76 78 76 77 74 52 52 51 51 51 49 50 49 48 49 49 48 49 49 48 49 49 47 47 50 48 47 46 45 44 45 49 52 52 52 52 53 55
77 76 75 75 75 75 74 75 75 77 77 76 77 77 79 78 78 78 79 76 75 73 71 74 78 77 75 77 80 81 79 76 75 76 78 79 78 78 79 79 75 57 51 50 51 50 50 49 48 48 48 48 48 48 47 48 48 48 48 47 47 47 44 42 41 42 43 46 49 52 52 51 53 56
78 76 75 76 76 75 74 73 75 77 75 79 78 78 79 79 79 78 79 78 77 74 72 73 77 77 77 79 79 81 78 77 77 78 77 78 78 77 79 79 68 53 49 49 49 49 49 48 48 48 48 48 47 47 48 48 48 48 48 48 48 46 44 43 44 45 45 46 46 50 50 50 52 55
78 76 75 76 76 75 74 73 75 76 76 79 78 77 79 81 78 77 77 78 78 76 75 73 73 76 75 76 77 80 79 76 75 76 77 79 79 78 76 74 68 67 64 62 57 50 49 48 47 48 48 47 46 47 48 48 48 48 47 47 47 47 47 47 46 45 45 46 45 45 47 49 51 53
79 78 77 73 74 72 74 74 75 75 76 77 77 77 77 81 76 75 76 78 77 76 76 75 74 75 76 75 74 79 81 79 78 73 73 72 78 76 75 73 72 71 68 62 55 57 58 55 55 49 47 47 48 48 47 48 48 47 46 46 46 46 46 46 46 47 45 46 45 44 44 46 48 51
78 78 76 76 71 70 74 75 75 75 75 76 76 77 77 78 75 74 75 75 76 75 74 75 74 75 75 75 76 80 80 76 76 78 74 71 72 73 74 74 73 72 70 67 66 57 56 54 53 46 47 47 48 47 48 48 48 47 46 45 46 46 46 46 47 46 46 46 46 45 44 43 44 47
78 78 78 75 67 65 62 54 57 60 63 75 74 75 77 76 75 75 75 74 74 74 74 73 74 74 73 74 73 73 73 73 72 75 75 73 74 75 73 75 76 76 71 70 69 66 64 64 61 61 60 57 50 51 51 51 48 46 45 46 46 47 46 46 46 47 46 46 46 45 45 44 44 44
78 78 76 71 60 57 57 55 52 51 52 54 64 71 75 75 74 74 73 74 74 73 72 73 73 71 71 73 72 72 73 75 75 74 73 71 73 73 72 73 74 76 74 71 69 71 69 67 66 65 64 62 56 60 58 59 55 48 46 46 47 46 46 46 46 46 46 45 45 45 45 45 44 43
76 77 77 75 70 67 65 63 47 49 49 50 48 47 49 56 68 74 72 73 74 73 73 73 73 73 71 73 75 74 74 74 73 73 73 72 72 70 69 67 72 76 74 70 69 70 71 69 68 69 68 63 60 63 62 53 50 47 47 46 47 46 46 46 46 46 45 45 45 44 44 44 44 43
77 76 76 75 75 75 73 75 70 62 50 50 49 47 47 47 45 48 65 71 72 73 73 72 73 73 73 74 74 75 74 74 73 73 72 71 71 70 69 69 68 74 74 69 67 67 73 70 69 68 71 66 63 66 54 48 48 47 47 47 46 46 46 46 46 45 45 44 44 44 44 44 44 43
77 76 76 75 75 76 64 72 76 74 67 48 41 45 48 48 47 49 47 49 64 70 70 72 72 73 74 73 74 75 75 75 72 72 72 71 71 71 70 70 71 72 71 69 67 66 70 72 67 67 69 70 60 53 48 47 47 47 46 47 46 46 45 45 45 45 44 43 44 44 44 43 43 43
74 75 75 75 74 75 74 75 75 76 75 70 66 67 70 73 63 47 45 44 42 52 68 70 70 74 76 74 74 76 76 74 72 71 71 71 70 70 70 71 71 74 72 68 67 65 69 72 68 66 68 71 60 61 50 46 47 46 47 46 46 45 45 45 45 45 44 43 44 44 44 43 42 42
75 75 75 74 75 75 76 70 66 75 75 75 74 73 73 74 74 74 73 70 72 71 71 72 73 73 74 75 75 76 76 76 74 74 73 72 72 72 73 72 71 70 72 71 68 63 68 71 67 66 68 69 68 63 48 46 46 46 46 46 45 46 45 45 44 44 44 44 44 43 43 42 42 41
76 76 75 75 74 75 66 48 39 46 63 72 73 72 73 74 74 75 69 64 65 72 74 75 75 76 68 56 66 65 70 76 75 74 74 74 71 71 69 67 69 66 70 70 68 64 66 69 64 66 68 69 67 62 57 46 47 46 46 46 45 45 45 45 44 44 44 44 44 43 43 43 41 41
74 74 74 72 73 66 59 42 39 40 47 69 70 71 72 72 74 73 75 57 52 55 54 46 42 40 39 42 43 44 42 58 65 72 71 68 70 67 65 65 67 67 69 68 68 66 64 67 67 65 67 67 66 64 60 56 47 46 46 45 45 45 44 44 45 44 44 44 44 44 43 42 42 42
75 67 55 66 71 64 53 39 40 39 52 66 69 69 69 70 70 72 74 71 63 47 43 45 44 43 44 42 41 41 44 44 52 70 67 69 69 64 62 61 66 66 67 64 67 63 63 67 67 64 66 66 65 65 65 58 52 45 45 45 45 45 45 45 45 45 45 44 44 44 43 43 42 49
74 67 51 45 49 50 44 37 39 38 48 60 64 66 66 66 67 69 67 63 62 63 63 64 64 60 54 57 62 64 47 45 51 66 68 69 68 64 63 64 63 63 66 67 66 61 62 63 65 62 60 59 63 63 64 59 56 54 55 53 50 45 44 44 45 45 45 45 44 44 43 43 42 51
72 71 57 47 37 38 37 37 36 38 37 50 56 59 63 64 64 60 59 63 65 65 62 63 64 66 70 68 67 67 66 59 59 63 66 68 68 67 67 66 65 63 64 66 64 61 62 63 63 63 62 58 53 61 62 61 57 57 57 57 55 47 44 45 45 44 44 44 43 43 43 43 43 51
69 72 66 56 40 38 37 38 37 37 37 38 50 55 59 61 50 47 59 60 52 63 66 67 65 67 70 70 70 69 69 67 65 63 64 67 68 67 66 66 65 65 63 63 56 63 59 62 62 61 59 60 59 56 58 59 60 58 59 60 60 55 52 53 51 54 46 43 43 43 42 43 42 46
68 69 68 56 45 39 39 39 38 37 38 37 46 54 45 41 40 49 53 57 61 64 66 67 67 66 66 67 70 70 70 69 67 65 64 64 65 66 64 61 59 59 55 57 52 62 61 58 60 59 57 55 54 55 53 54 57 59 60 61 60 59 57 57 59 59 57 52 51 46 47 44 43 43
63 66 65 56 43 40 40 40 39 39 37 40 50 42 40 40 38 42 53 56 57 59 61 60 60 61 64 62 63 62 60 64 62 62 61 60 60 60 59 58 61 60 59 59 61 62 62 60 61 58 55 55 53 52 52 51 53 58 60 60 59 59 60 59 56 57 57 56 55 46 44 44 43 43
61 61 56 51 40 41 41 40 40 39 38 45 40 39 39 38 39 48 54 56 57 55 56 57 59 60 62 63 61 57 61 65 63 63 62 61 61 61 60 60 58 61 61 62 62 62 61 58 56 57 56 54 52 50 49 54 55 57 56 59 60 60 59 58 58 56 55 56 55 54 53 53 53 46
58 46 39 40 42 42 40 39 39 42 43 40 38 36 36 38 51 55 57 57 58 57 57 58 60 62 63 65 66 65 61 60 61 62 62 63 61 58 57 55 55 55 56 58 59 59 57 55 54 54 54 53 51 51 52 52 55 55 56 55 53 56 57 59 58 56 54 55 55 54 54 54 54 54
38 37 38 38 38 41 44 51 54 57 58 47 40 36 37 50 57 60 60 60 58 57 58 59 59 62 64 66 66 64 65 61 60 60 58 56 55 56 55 54 53 54 56 57 58 57 56 55 54 53 51 51 51 50 51 51 51 53 53 53 54 55 57 58 57 55 53 53 54 53 54 55 53 52
53 52 49 51 46 45 43 42 42 44 45 50 55 57 57 58 58 59 60 59 58 57 59 58 60 61 63 65 63 61 61 59 60 61 56 56 56 56 55 53 50 51 52 55 56 56 55 54 54 54 51 50 51 51 52 52 49 51 53 54 53 49 55 56 55 54 55 54 53 53 54 54 50 51
53 53 47 48 54 56 56 56 58 59 59 58 58 63 65 65 63 58 51 51 58 57 57 57 59 58 59 59 61 62 60 59 59 59 57 54 55 55 53 48 46 46 47 48 50 51 49 53 52 52 51 51 50 51 52 50 49 51 52 53 55 56 55 53 53 54 54 52 51 52 53 54 53 53
50 52 54 55 57 59 54 52 60 61 60 58 59 59 61 61 62 61 61 58 57 56 56 55 55 54 54 54 57 58 57 57 57 58 56 56 55 54 54 52 50 48 47 46 46 48 49 50 51 52 52 52 52 51 50 49 50 52 51 54 55 54 53 53 52 52 53 50 49 51 52 54 54 51
44 47 51 53 56 53 57 56 55 54 56 53 54 54 51 55 59 59 59 58 56 54 49 51 49 48 47 49 52 53 54 55 56 57 51 54 52 51 52 50 49 48 47 46 46 45 47 48 49 49 51 51 52 53 52 50 50 52 54 54 53 51 52 53 52 52 51 49 49 48 49 51 53 51
45 48 52 55 55 55 57 54 53 53 51 52 52 53 53 55 54 53 56 56 51 48 47 44 46 46 47 48 47 47 47 50 53 52 50 50 49 48 48 48 47 46 46 46 45 46 47 47 47 46 47 48 48 51 51 53 51 51 52 53 52 50 50 51 51 50 50 49 50 45 43 48 51 52
50 52 54 53 54 53 53 53 52 53 53 52 50 52 51 52 53 53 53 54 56 51 49 47 45 46 46 46 44 45 45 45 48 49 47 48 43 48 49 48 47 47 48 47 47 48 48 47 47 45 43 45 46 45 44 48 49 51 48 44 50 49 50 51 51 50 49 48 49 48 44 42 48 50
52 52 48 53 54 53 52 53 53 53 53 53 52 53 52 52 54 56 55 50 54 51 51 46 48 48 45 46 45 44 44 44 42 44 43 46 47 47 44 44 46 47 48 48 49 49 50 49 50 48 46 45 45 43 43 42 43 44 48 47 45 49 49 48 47 46 49 50 50 49 45 42 42 49
49 52 51 51 52 52 52 52 49 50 51 52 52 51 53 54 54 55 57 57 52 50 49 48 49 49 49 48 45 45 43 43 42 40 41 41 41 42 42 43 42 43 44 46 46 48 49 49 48 48 47 44 44 44 40 42 44 46 45 48 45 45 48 48 45 45 46 51 50 51 50 46 42 48
53 51 51 51 52 53 50 51 50 50 52 51 50 50 48 50 51 49 47 48 51 48 48 47 47 47 46 45 46 44 42 42 42 42 41 42 41 41 41 42 40 44 45 43 46 47 48 47 46 46 47 45 43 42 42 43 43 47 44 43 49 46 47 43 45 47 48 45 50 51 47 48 46 39
52 51 52 52 51 52 52 52 51 51 49 49 49 49 48 47 46 44 43 44 43 43 44 45 44 44 45 46 44 42 42 40 41 42 42 42 41 42 42 43 44 43 42 43 43 46 47 48 48 49 49 47 43 44 46 47 50 49 48 42 41 45 45 44 45 46 45 48 49 46 47 47 44 44
50 50 51 51 51 50 49 50 50 49 48 49 49 45 48 47 45 43 43 41 40 41 42 43 41 41 43 43 43 42 41 41 41 41 41 42 41 42 41 41 43 43 42 40 41 43 46 45 43 39 46 43 44 44 46 45 45 45 44 46 41 38 39 43 49 46 44 46 46 46 45 45 45 45
48 49 50 51 50 50 50 49 49 48 47 47 46 43 43 42 42 40 42 40 41 42 43 42 42 42 42 43 43 42 41 40 41 41 41 41 41 41 41 43 42 42 41 40 40 43 47 48 46 46 49 45 45 43 43 44 43 45 45 45 44 41 38 37 38 41 48 44 45 44 44 46 47 44
49 50 50 49 49 49 49 48 48 48 46 46 44 43 44 44 44 43 43 42 42 41 41 40 40 40 40 40 41 42 42 42 42 42 40 41 41 41 42 43 42 41 42 42 44 44 45 46 47 44 45 45 44 44 42 42 43 44 44 46 45 46 46 40 38 37 38 37 39 41 44 44 42 39
48 48 49 49 48 48 48 48 47 47 45 44 45 45 45 44 43 43 43 42 41 40 40 39 39 39 39 40 40 40 41 41 41 41 41 42 43 43 42 42 42 42 44 44 45 45 45 45 44 45 44 44 45 44 43 42 44 44 45 44 43 44 45 48 46 42 41 40 38 37 36 36 38 38
46 47 47 46 45 46 45 47 45 46 46 46 46 46 45 45 44 43 42 42 41 41 40 40 40 40 40 40 40 39 39 39 40 41 42 42 42 42 41 42 42 42 42 43 43 42 42 43 45 46 45 45 45 44 44 44 44 43 44 44 43 45 47 46 45 44 45 46 43 39 38 37 36 35
MSLP
1019.29 1019.21 1019.17 1019.33 1019.53 1019.65 1019.89 1020.17 1020.25 1020.09 1020.25 1020.33 1020.61 1020.81 1020.61 1020.45 1021.13 1021.81 1022.13 1021.85 1022.21 1021.81 1021.61 1022.33 1022.45 1022.37 1022.73 1023.25 1023.65 1023.97 1024.17 1024.65 1024.77 1024.69 1025.01 1025.33 1025.61 1025.97 1026.09 1026.17 1026.21 1026.29 1026.37 1026.45 1026.49 1026.53 1026.61 1026.65 1026.69 1026.69 1026.77 1026.77 1026.85 1026.89 1026.89 1026.89 1026.89 1026.89 1026.89 1026.93 1026.97 1026.97 1026.97 1026.97 1026.97 1026.97 1026.93 1026.93 1026.97 1027.01 1026.97 1026.93 1026.89 1026.81
1018.69 1018.81 1019.13 1019.45 1019.49 1019.65 1019.89 1020.77 1020.05 1020.13 1020.33 1020.57 1020.69 1021.13 1020.17 1020.13 1020.73 1021.13 1021.81 1022.17 1021.69 1021.89 1021.53 1021.65 1022.45 1022.45 1022.81 1023.17 1023.53 1023.61 1024.01 1024.45 1024.37 1024.25 1024.73 1025.05 1025.37 1025.85 1026.01 1026.09 1026.21 1026.29 1026.37 1026.45 1026.53 1026.57 1026.61 1026.69 1026.73 1026.77 1026.85 1026.89 1026.97 1027.01 1026.97 1026.97 1026.97 1026.97 1027.01 1027.05 1027.01 1027.05 1027.05 1027.09 1027.09 1027.05 1027.01 1027.05 1027.01 1027.01 1027.01 1026.97 1026.97 1026.89
1018.61 1018.81 1018.97 1019.09 1019.57 1019.65 1020.09 1019.89 1020.29 1020.05 1020.49 1020.89 1021.13 1020.25 1019.93 1020.05 1020.33 1020.61 1020.85 1022.17 1021.65 1021.25 1021.97 1021.61 1021.77 1022.29 1022.65 1022.85 1023.13 1023.33 1023.73 1024.21 1024.33 1024.13 1024.49 1024.69 1025.29 1025.69 1025.89 1026.05 1026.17 1026.25 1026.33 1026.45 1026.53 1026.57 1026.61 1026.73 1026.77 1026.81 1026.85 1026.89 1026.93 1027.01 1027.01 1027.01 1027.01 1026.97 1027.05 1027.13 1027.09 1027.09 1027.13 1027.17 1027.21 1027.13 1027.17 1027.13 1027.13 1027.09 1027.09 1027.05 1027.01 1026.97
1018.65 1018.81 1018.97 1019.13 1019.33 1019.53 1019.53 1019.49 1019.45 1019.85 1020.09 1020.41 1020.37 1020.29 1020.29 1020.29 1019.93 1020.25 1020.45 1020.89 1022.09 1021.29 1021.37 1021.61 1021.77 1022.09 1022.53 1022.61 1022.93 1023.21 1023.61 1024.01 1024.25 1023.97 1024.13 1024.57 1025.21 1025.49 1025.49 1025.97 1026.05 1026.17 1026.25 1026.37 1026.45 1026.49 1026.57 1026.65 1026.73 1026.73 1026.77 1026.85 1026.93 1026.97 1027.01 1027.01 1026.97 1027.01 1027.09 1027.17 1027.17 1027.17 1027.21 1027.25 1027.29 1027.29 1027.25 1027.25 1027.21 1027.21 1027.17 1027.13 1027.09 1027.01
1018.65 1018.69 1018.81 1018.89 1019.01 1018.93 1019.17 1019.45 1019.33 1019.53 1019.97 1019.93 1020.13 1020.09 1020.25 1020.13 1019.89 1019.97 1020.21 1021.01 1021.81 1021.53 1021.13 1021.49 1021.77 1021.97 1022.29 1022.61 1022.61 1023.05 1023.45 1023.97 1023.97 1023.77 1023.89 1024.57 1024.85 1024.93 1024.89 1025.29 1025.73 1025.89 1026.09 1026.21 1026.33 1026.45 1026.49 1026.57 1026.65 1026.69 1026.73 1026.81 1026.85 1026.89 1026.93 1026.93 1026.97 1027.01 1027.09 1027.17 1027.21 1027.25 1027.29 1027.29 1027.37 1027.41 1027.37 1027.33 1027.29 1027.29 1027.25 1027.17 1027.13 1027.05
1018.73 1018.77 1018.85 1018.85 1018.93 1018.85 1019.17 1019.21 1019.13 1019.01 1019.65 1019.97 1020.25 1020.37 1020.13 1019.77 1019.89 1019.53 1019.61 1020.85 1021.49 1022.13 1021.77 1021.69 1021.49 1022.09 1022.09 1022.49 1022.37 1022.73 1023.41 1023.77 1023.73 1023.65 1023.77 1024.21 1024.33 1024.33 1024.21 1024.41 1025.01 1025.45 1025.65 1025.93 1026.09 1026.21 1026.37 1026.45 1026.53 1026.61 1026.69 1026.73 1026.77 1026.77 1026.77 1026.85 1026.89 1026.93 1027.05 1027.09 1027.17 1027.21 1027.25 1027.29 1027.37 1027.41 1027.41 1027.37 1027.37 1027.33 1027.29 1027.21 1027.13 1027.01
1018.65 1018.89 1018.85 1018.89 1018.89 1018.97 1019.21 1019.25 1019.33 1019.25 1019.21 1019.45 1019.89 1019.93 1019.41 1019.41 1019.81 1019.49 1019.01 1020.37 1021.45 1021.97 1022.05 1021.61 1021.77 1022.09 1022.21 1022.21 1022.37 1022.37 1022.85 1023.25 1023.45 1023.49 1023.37 1023.65 1023.81 1023.73 1023.69 1023.57 1024.01 1024.97 1025.33 1025.61 1025.81 1025.97 1026.17 1026.29 1026.41 1026.53 1026.57 1026.61 1026.61 1026.65 1026.65 1026.69 1026.77 1026.89 1026.97 1027.01 1027.09 1027.17 1027.21 1027.29 1027.37 1027.45 1027.45 1027.41 1027.37 1027.37 1027.33 1027.29 1027.17 1027.01
1018.57 1018.85 1018.89 1018.89 1018.93 1019.09 1019.29 1019.37 1019.37 1019.25 1019.33 1019.45 1019.57 1019.53 1019.25 1019.53 1019.85 1019.61 1019.41 1020.09 1020.77 1021.49 1021.93 1021.65 1021.45 1021.81 1022.25 1022.17 1021.73 1021.97 1022.29 1022.93 1023.25 1023.21 1023.09 1023.05 1023.21 1023.25 1023.17 1023.21 1023.65 1024.65 1025.09 1025.37 1025.57 1025.77 1025.97 1026.13 1026.29 1026.37 1026.41 1026.45 1026.49 1026.49 1026.53 1026.57 1026.65 1026.77 1026.85 1026.93 1027.05 1027.09 1027.21 1027.29 1027.37 1027.41 1027.41 1027.41 1027.41 1027.33 1027.33 1027.29 1027.17 1026.97
1018.41 1018.77 1018.81 1018.77 1018.93 1018.97 1019.21 1019.41 1019.37 1019.21 1019.45 1019.13 1019.21 1019.45 1019.33 1019.53 1019.69 1019.85 1019.73 1019.85 1020.33 1021.13 1021.57 1021.69 1021.05 1021.25 1021.73 1021.73 1021.57 1021.53 1022.13 1022.57 1022.81 1022.81 1022.81 1022.81 1022.85 1022.93 1022.85 1023.05 1023.85 1024.69 1025.21 1025.37 1025.49 1025.61 1025.77 1025.93 1026.05 1026.13 1026.21 1026.29 1026.33 1026.37 1026.37 1026.41 1026.49 1026.61 1026.73 1026.85 1026.97 1027.05 1027.17 1027.25 1027.29 1027.37 1027.37 1027.41 1027.41 1027.33 1027.29 1027.25 1027.13 1026.97
1018.41 1018.69 1018.77 1018.57 1018.69 1018.93 1019.09 1019.33 1019.21 1019.21 1019.29 1019.05 1019.25 1019.49 1019.29 1019.13 1019.73 1020.13 1020.17 1019.89 1019.85 1020.61 1021.05 1021.37 1021.49 1021.09 1021.57 1021.73 1021.69 1021.29 1021.57 1022.09 1022.57 1022.65 1022.53 1022.37 1022.33 1022.53 1022.85 1023.25 1023.93 1024.45 1024.85 1025.09 1025.37 1025.61 1025.69 1025.77 1025.81 1025.89 1025.97 1026.05 1026.13 1026.17 1026.21 1026.29 1026.41 1026.53 1026.65 1026.77 1026.89 1026.97 1027.05 1027.13 1027.25 1027.33 1027.37 1027.37 1027.33 1027.33 1027.29 1027.21 1027.13 1026.97
1018.37 1018.45 1018.61 1018.97 1019.01 1019.25 1019.17 1019.17 1019.21 1019.21 1019.33 1019.21 1019.33 1019.33 1019.45 1018.93 1019.69 1020.21 1020.41 1020.25 1020.29 1020.41 1020.61 1020.89 1021.09 1021.21 1021.17 1021.41 1021.89 1021.33 1021.13 1021.53 1021.93 1022.45 1022.69 1022.77 1022.25 1022.37 1022.65 1023.01 1023.41 1023.77 1024.25 1024.41 1024.69 1024.81 1024.93 1025.17 1025.49 1025.69 1025.81 1025.89 1025.97 1026.05 1026.09 1026.17 1026.25 1026.41 1026.53 1026.65 1026.77 1026.89 1026.97 1027.09 1027.17 1027.25 1027.29 1027.29 1027.25 1027.25 1027.25 1027.25 1027.17 1027.05
1018.65 1018.53 1018.69 1018.73 1019.41 1019.81 1019.17 1019.17 1019.25 1019.17 1019.45 1019.29 1019.41 1019.33 1019.45 1019.25 1019.69 1020.21 1020.33 1020.41 1020.41 1020.73 1020.77 1020.65 1021.01 1021.09 1021.17 1021.33 1021.29 1020.89 1021.09 1021.61 1021.81 1021.73 1022.09 1022.61 1022.53 1022.41 1022.37 1022.61 1022.93 1023.29 1023.69 1024.17 1024.57 1024.81 1025.01 1025.17 1025.41 1025.73 1025.85 1025.89 1025.89 1025.93 1026.01 1026.05 1026.09 1026.25 1026.37 1026.53 1026.65 1026.81 1026.93 1027.05 1027.09 1027.13 1027.17 1027.17 1027.17 1027.13 1027.17 1027.17 1027.13 1027.05
1018.65 1018.61 1018.65 1019.01 1019.69 1020.01 1019.81 1019.89 1019.77 1019.69 1019.57 1019.57 1019.73 1019.69 1019.69 1019.81 1019.89 1020.17 1020.33 1020.53 1020.65 1020.65 1020.77 1020.97 1020.85 1021.01 1021.21 1021.17 1021.45 1021.65 1021.61 1021.85 1021.97 1021.65 1021.73 1022.01 1021.97 1021.97 1022.17 1022.29 1022.41 1022.61 1023.25 1023.61 1023.81 1024.13 1024.37 1024.57 1024.93 1025.21 1025.33 1025.53 1025.81 1025.77 1025.69 1025.85 1026.05 1026.13 1026.29 1026.41 1026.53 1026.65 1026.77 1026.89 1026.97 1027.05 1027.05 1027.05 1027.05 1027.05 1027.01 1026.97 1026.93 1026.93
1018.69 1018.65 1018.93 1019.53 1019.77 1020.05 1020.09 1020.25 1020.25 1019.93 1019.85 1020.01 1020.17 1020.17 1020.05 1020.13 1020.29 1020.41 1020.49 1020.49 1020.45 1020.57 1020.89 1020.93 1020.97 1021.21 1021.21 1021.13 1021.13 1021.41 1021.37 1021.21 1021.33 1021.57 1021.65 1022.05 1021.89 1021.97 1022.13 1021.97 1021.85 1022.09 1022.53 1023.01 1023.29 1023.25 1023.53 1023.85 1024.05 1024.33 1024.33 1024.69 1025.21 1025.17 1025.37 1025.29 1025.61 1025.93 1026.09 1026.25 1026.37 1026.49 1026.61 1026.73 1026.77 1026.85 1026.89 1026.93 1026.93 1026.93 1026.89 1026.85 1026.81 1026.85
1018.97 1018.77 1019.05 1019.41 1019.65 1019.77 1019.97 1020.01 1020.17 1020.13 1020.25 1020.25 1020.33 1020.53 1020.65 1020.61 1020.57 1020.41 1020.45 1020.53 1020.33 1020.45 1020.57 1020.45 1020.57 1020.73 1020.93 1020.85 1020.65 1020.81 1020.93 1021.05 1021.33 1021.53 1021.61 1021.73 1021.77 1022.01 1022.29 1022.49 1021.69 1021.29 1021.93 1022.65 1022.93 1022.81 1022.73 1023.25 1023.33 1023.41 1023.37 1023.85 1024.41 1024.41 1024.45 1024.77 1025.29 1025.69 1025.93 1026.09 1026.25 1026.41 1026.53 1026.61 1026.65 1026.69 1026.69 1026.73 1026.77 1026.81 1026.77 1026.73 1026.73 1026.73
1018.81 1018.93 1019.01 1019.29 1019.41 1019.53 1019.65 1019.81 1020.05 1020.29 1020.41 1020.45 1020.53 1020.57 1020.57 1020.49 1020.61 1020.85 1020.81 1020.61 1020.45 1020.37 1020.41 1020.45 1020.33 1020.37 1020.45 1020.41 1020.53 1020.57 1020.69 1020.81 1021.01 1021.25 1021.45 1021.57 1021.65 1021.81 1021.97 1022.01 1022.05 1021.17 1021.41 1022.37 1022.69 1022.73 1022.21 1022.53 1022.77 1022.77 1022.57 1023.05 1023.57 1023.61 1023.93 1024.45 1024.97 1025.41 1025.69 1025.89 1026.09 1026.29 1026.45 1026.53 1026.53 1026.53 1026.57 1026.61 1026.61 1026.61 1026.61 1026.61 1026.57 1026.57
1018.65 1018.85 1019.05 1019.25 1019.37 1019.41 1019.89 1019.77 1019.61 1019.89 1020.29 1020.61 1020.77 1020.77 1020.77 1020.73 1020.61 1020.49 1020.69 1020.93 1020.89 1020.65 1020.65 1020.49 1020.33 1020.21 1020.17 1020.33 1020.21 1020.13 1020.25 1020.25 1020.77 1020.89 1021.17 1021.29 1021.41 1021.41 1021.53 1021.53 1021.49 1021.21 1021.17 1021.89 1022.37 1022.45 1022.01 1021.89 1022.45 1022.57 1022.41 1022.45 1023.45 1023.97 1024.17 1024.45 1024.81 1025.17 1025.49 1025.69 1025.89 1026.09 1026.25 1026.37 1026.41 1026.45 1026.49 1026.49 1026.45 1026.49 1026.49 1026.45 1026.37 1026.33
1019.33 1019.33 1019.29 1019.33 1019.57 1019.53 1019.73 1019.69 1019.65 1019.57 1019.77 1020.25 1020.49 1020.57 1020.49 1020.29 1020.33 1020.57 1020.57 1020.49 1020.65 1020.89 1020.77 1020.61 1020.57 1019.97 1019.85 1020.09 1019.93 1019.73 1019.81 1020.17 1020.53 1020.73 1020.89 1020.89 1021.09 1021.21 1021.17 1020.97 1021.01 1020.81 1021.01 1021.65 1021.93 1022.17 1021.81 1021.53 1022.05 1022.45 1022.33 1022.29 1023.25 1023.53 1024.09 1024.37 1024.61 1024.93 1025.21 1025.45 1025.61 1025.81 1025.97 1026.09 1026.17 1026.29 1026.33 1026.33 1026.33 1026.33 1026.33 1026.25 1026.21 1026.13
1019.37 1019.49 1019.53 1019.53 1019.45 1019.49 1019.53 1019.85 1019.73 1019.69 1019.69 1019.73 1019.89 1020.01 1019.97 1019.97 1019.89 1019.89 1020.05 1020.25 1020.25 1020.29 1020.29 1020.25 1020.17 1020.09 1019.89 1019.81 1019.65 1019.57 1019.61 1019.81 1019.97 1020.09 1020.29 1020.49 1020.57 1020.57 1020.45 1020.77 1020.89 1021.13 1021.01 1021.17 1021.61 1021.93 1021.41 1021.25 1021.93 1022.01 1022.09 1022.13 1022.29 1022.93 1023.85 1024.13 1024.41 1024.65 1024.93 1025.13 1025.37 1025.57 1025.73 1025.89 1026.01 1026.13 1026.17 1026.21 1026.21 1026.17 1026.13 1026.05 1025.97 1025.89
1019.33 1019.37 1019.45 1019.53 1019.53 1019.57 1020.33 1021.01 1020.77 1020.65 1020.37 1020.13 1020.01 1019.97 1019.89 1019.81 1019.69 1019.61 1019.41 1019.53 1019.69 1019.77 1019.81 1019.81 1019.89 1019.81 1019.89 1019.93 1019.93 1019.93 1019.85 1019.65 1019.61 1019.77 1019.93 1020.13 1020.41 1020.57 1020.85 1020.89 1020.69 1021.05 1020.81 1020.93 1021.33 1021.61 1021.37 1021.17 1021.81 1021.73 1021.69 1021.85 1022.05 1022.73 1023.53 1023.97 1024.05 1024.37 1024.65 1024.89 1025.13 1025.33 1025.49 1025.65 1025.81 1025.89 1025.93 1025.93 1025.97 1025.93 1025.85 1025.77 1025.69 1025.61
1019.41 1019.45 1019.61 1019.81 1019.85 1020.49 1021.17 1021.77 1021.41 1021.25 1020.97 1020.49 1020.29 1020.01 1019.89 1019.81 1019.69 1019.57 1019.25 1019.37 1019.45 1019.53 1019.65 1019.81 1019.97 1020.09 1020.13 1020.13 1020.17 1020.13 1020.21 1020.09 1019.97 1019.93 1020.17 1020.41 1020.33 1020.57 1020.69 1020.85 1020.65 1020.49 1020.57 1020.81 1020.93 1021.21 1021.33 1020.97 1021.09 1021.53 1021.45 1021.61 1021.77 1022.17 1022.93 1023.53 1024.01 1024.17 1024.41 1024.65 1024.85 1025.05 1025.25 1025.37 1025.49 1025.57 1025.61 1025.69 1025.69 1025.65 1025.61 1025.53 1025.49 1025.45
1019.29 1019.77 1020.09 1020.17 1020.17 1020.77 1021.97 1022.21 1021.97 1021.81 1021.37 1020.81 1020.45 1020.29 1020.17 1020.05 1019.93 1019.65 1019.29 1019.61 1020.25 1020.49 1020.49 1020.33 1020.25 1020.25 1020.21 1020.21 1020.25 1020.25 1020.21 1020.21 1020.25 1020.17 1020.33 1019.93 1020.09 1020.53 1020.93 1020.69 1020.25 1020.21 1020.45 1020.89 1020.81 1021.37 1021.13 1020.93 1020.93 1021.45 1021.33 1021.45 1021.73 1021.97 1022.17 1023.09 1023.77 1024.29 1024.45 1024.57 1024.69 1024.85 1025.01 1025.13 1025.17 1025.21 1025.29 1025.37 1025.45 1025.45 1025.45 1025.45 1025.49 1025.25
1019.45 1020.17 1021.17 1021.41 1021.65 1022.17 1022.69 1022.57 1022.53 1022.49 1022.17 1021.49 1020.93 1020.61 1020.49 1020.29 1020.13 1019.85 1019.97 1020.17 1020.57 1020.81 1021.05 1020.89 1020.61 1020.33 1020.09 1020.05 1019.93 1019.77 1019.89 1020.05 1020.17 1020.05 1019.89 1019.81 1019.89 1020.17 1020.41 1020.25 1020.37 1020.37 1019.89 1019.93 1020.53 1021.21 1020.93 1021.05 1020.89 1021.49 1021.73 1021.73 1021.61 1021.93 1022.09 1022.77 1023.41 1023.89 1024.09 1024.33 1024.61 1024.73 1024.89 1024.93 1024.85 1024.85 1025.01 1025.17 1025.25 1025.37 1025.45 1025.49 1025.49 1025.05
1019.73 1019.85 1021.33 1022.29 1022.69 1022.65 1022.73 1022.77 1022.77 1022.77 1022.85 1022.53 1022.01 1021.53 1020.93 1020.49 1020.29 1021.05 1021.01 1020.49 1020.37 1020.25 1020.33 1020.33 1020.37 1020.13 1019.41 1019.25 1019.29 1019.21 1019.25 1019.53 1019.69 1019.65 1019.57 1019.53 1019.49 1019.49 1019.45 1019.53 1019.77 1019.89 1019.57 1019.57 1019.93 1020.57 1020.57 1020.73 1020.69 1021.09 1021.33 1021.49 1021.61 1021.41 1021.93 1022.37 1023.09 1023.29 1023.45 1023.53 1023.77 1024.25 1024.61 1024.69 1024.65 1024.69 1024.85 1024.97 1025.13 1025.33 1025.45 1025.41 1025.33 1024.97
1020.13 1019.77 1020.41 1021.89 1022.97 1022.93 1023.05 1023.09 1023.13 1023.21 1023.21 1023.25 1022.77 1022.09 1021.53 1021.09 1021.85 1022.05 1021.09 1020.57 1020.53 1020.13 1019.69 1019.53 1019.53 1019.25 1018.93 1018.73 1018.65 1018.53 1018.53 1018.61 1018.81 1019.01 1019.09 1019.05 1019.09 1019.17 1019.29 1019.21 1019.17 1019.13 1019.45 1019.45 1019.65 1020.09 1020.53 1020.33 1020.49 1020.93 1021.33 1021.41 1021.53 1021.97 1022.25 1022.33 1022.49 1022.77 1022.89 1022.93 1022.97 1023.69 1024.17 1024.21 1024.25 1024.13 1024.37 1024.73 1025.05 1025.21 1025.33 1025.29 1025.13 1025.05
1020.49 1020.25 1020.41 1022.01 1022.57 1022.61 1022.81 1022.81 1022.77 1022.77 1022.89 1023.09 1022.89 1022.05 1022.01 1022.01 1022.09 1022.21 1021.93 1021.25 1020.49 1019.81 1019.41 1019.05 1018.93 1018.85 1018.69 1018.41 1018.09 1018.05 1018.01 1018.01 1018.21 1018.57 1018.77 1018.85 1018.89 1019.01 1019.25 1019.53 1019.65 1019.41 1019.73 1019.93 1019.89 1020.01 1020.21 1020.45 1020.45 1020.77 1021.37 1021.85 1022.21 1022.33 1022.57 1022.57 1022.53 1022.49 1022.53 1022.57 1022.93 1023.17 1023.45 1023.33 1023.29 1023.45 1023.77 1024.37 1024.69 1024.97 1025.01 1024.93 1024.85 1024.85
1021.25 1021.01 1020.93 1021.93 1022.61 1022.69 1022.45 1022.37 1022.37 1022.53 1022.69 1022.61 1022.21 1022.13 1022.17 1022.17 1022.25 1022.21 1021.61 1021.25 1020.85 1020.33 1019.85 1019.69 1019.53 1019.13 1018.65 1018.73 1018.65 1018.25 1018.85 1018.49 1018.49 1018.53 1018.69 1018.85 1019.01 1019.13 1019.41 1019.65 1019.69 1019.73 1019.77 1020.01 1020.13 1020.17 1020.21 1020.29 1020.33 1020.81 1021.49 1021.77 1022.13 1022.37 1022.57 1022.69 1022.37 1022.17 1022.13 1022.37 1022.85 1022.93 1022.93 1023.21 1023.45 1023.37 1023.53 1023.81 1023.97 1024.41 1024.53 1024.45 1024.41 1024.61
1021.81 1021.65 1022.25 1022.49 1022.61 1022.53 1022.49 1022.37 1022.17 1022.05 1022.25 1022.25 1022.09 1022.13 1022.17 1022.29 1022.37 1022.09 1021.45 1021.01 1020.65 1020.57 1020.29 1019.89 1019.45 1019.13 1018.89 1018.61 1018.33 1018.41 1018.57 1018.29 1018.69 1018.65 1018.81 1018.97 1019.09 1019.17 1019.49 1019.77 1019.93 1019.97 1020.01 1020.17 1020.37 1020.45 1020.37 1020.61 1021.01 1021.13 1021.45 1021.89 1022.21 1022.37 1022.41 1022.13 1022.13 1021.93 1022.13 1022.21 1022.29 1022.69 1023.05 1023.13 1023.13 1023.41 1023.69 1023.85 1023.97 1023.97 1024.05 1023.97 1024.05 1024.57
1022.41 1022.77 1022.81 1022.65 1022.49 1022.45 1022.37 1022.37 1022.25 1022.01 1021.65 1021.45 1021.53 1021.89 1021.93 1022.17 1021.89 1021.21 1020.77 1020.49 1020.33 1020.09 1019.81 1019.41 1019.01 1018.65 1018.45 1018.29 1018.05 1017.97 1018.21 1018.73 1019.05 1018.97 1019.05 1019.09 1019.33 1019.65 1020.01 1020.37 1020.53 1020.61 1020.57 1020.57 1020.69 1020.81 1020.97 1021.05 1021.37 1021.53 1021.81 1022.09 1022.29 1022.29 1022.29 1022.21 1022.01 1022.13 1022.25 1022.53 1022.81 1022.93 1022.85 1022.57 1022.81 1023.33 1023.65 1023.69 1023.77 1023.85 1023.81 1023.81 1023.77 1023.85
1023.17 1023.13 1023.05 1022.89 1022.73 1022.53 1022.33 1022.13 1021.77 1021.37 1021.01 1021.09 1021.37 1021.41 1021.73 1021.61 1020.77 1020.33 1020.05 1020.01 1020.01 1019.81 1019.49 1019.25 1018.97 1018.61 1018.33 1018.09 1017.97 1018.13 1018.09 1018.41 1018.85 1019.13 1019.33 1019.65 1019.89 1019.93 1020.13 1020.57 1021.13 1021.37 1021.29 1021.01 1020.89 1021.01 1021.13 1021.37 1021.61 1021.93 1022.29 1022.49 1022.61 1022.65 1022.53 1022.53 1022.61 1022.61 1022.69 1022.85 1022.85 1022.85 1022.85 1022.73 1022.85 1023.33 1023.65 1023.69 1023.69 1023.81 1023.81 1023.73 1023.85 1023.97
1022.89 1022.77 1022.77 1022.53 1022.33 1022.17 1022.01 1021.93 1021.81 1021.77 1021.53 1021.29 1020.81 1020.53 1020.53 1020.45 1020.25 1019.93 1019.89 1019.93 1020.05 1019.89 1019.49 1019.25 1019.05 1018.85 1018.57 1018.33 1018.45 1018.53 1018.45 1018.69 1018.89 1018.97 1019.41 1019.65 1019.85 1019.97 1020.13 1020.65 1021.37 1021.65 1021.89 1021.69 1021.37 1021.25 1021.49 1021.77 1022.01 1022.21 1022.49 1022.65 1022.69 1022.73 1022.61 1022.81 1023.05 1022.77 1022.57 1022.57 1022.81 1023.13 1022.49 1022.65 1023.13 1023.29 1023.37 1023.57 1023.81 1023.85 1023.73 1023.53 1023.93 1024.01
1023.21 1023.01 1022.65 1022.25 1021.77 1021.33 1021.13 1020.93 1020.73 1020.49 1020.29 1020.13 1019.97 1019.49 1019.17 1019.05 1019.13 1019.33 1019.81 1020.09 1020.09 1020.13 1020.05 1019.81 1019.45 1019.25 1019.09 1018.89 1018.53 1018.45 1018.69 1018.89 1018.93 1019.17 1019.33 1019.81 1019.89 1019.97 1020.25 1020.85 1021.33 1021.73 1022.21 1022.49 1022.33 1022.01 1021.89 1022.09 1022.33 1022.49 1022.65 1022.65 1022.69 1022.61 1022.69 1022.93 1023.13 1022.85 1022.61 1022.45 1022.25 1022.25 1022.77 1023.05 1023.05 1023.25 1023.49 1023.85 1024.05 1023.81 1023.33 1023.13 1023.29 1023.53
1023.57 1023.01 1022.29 1021.61 1021.21 1020.81 1020.45 1020.25 1020.05 1019.97 1020.01 1020.13 1020.17 1020.13 1019.85 1019.61 1019.53 1019.53 1019.49 1019.69 1019.93 1019.93 1019.93 1019.81 1019.69 1019.61 1019.61 1019.49 1019.17 1018.85 1019.01 1019.01 1019.13 1019.25 1019.57 1019.61 1019.73 1019.97 1020.05 1020.41 1020.81 1021.25 1021.65 1022.01 1022.25 1022.33 1022.33 1022.45 1022.61 1022.65 1022.69 1022.77 1022.77 1022.77 1022.65 1022.69 1022.57 1022.57 1022.65 1022.33 1022.05 1022.33 1022.85 1023.09 1023.25 1023.41 1023.65 1023.97 1023.97 1023.61 1023.17 1022.89 1023.05 1023.53
1024.33 1023.17 1022.41 1021.73 1020.85 1020.53 1020.45 1020.49 1020.61 1020.65 1020.73 1020.73 1020.73 1020.65 1020.61 1020.45 1020.05 1019.81 1019.81 1020.01 1020.29 1020.53 1020.69 1020.57 1020.45 1020.29 1020.09 1020.09 1019.77 1019.49 1019.29 1019.21 1019.13 1018.93 1019.29 1019.45 1019.85 1020.01 1020.05 1020.45 1020.89 1021.21 1021.57 1022.01 1022.21 1022.41 1022.57 1022.65 1022.77 1022.89 1022.85 1022.85 1022.77 1022.73 1022.69 1022.65 1022.41 1022.21 1022.21 1022.29 1022.45 1022.65 1022.85 1023.05 1023.25 1023.49 1023.85 1024.05 1024.01 1023.89 1023.53 1023.09 1023.05 1023.57
1023.97 1023.05 1021.81 1020.89 1020.81 1020.77 1020.73 1021.05 1021.17 1021.33 1021.37 1021.37 1021.29 1021.17 1020.97 1020.73 1020.53 1020.33 1020.05 1020.01 1020.29 1020.69 1020.89 1020.85 1020.73 1020.53 1020.41 1020.37 1020.33 1020.25 1020.21 1019.93 1019.45 1019.65 1019.97 1020.13 1020.37 1020.53 1020.65 1020.69 1021.13 1021.49 1021.53 1021.77 1022.21 1022.41 1022.57 1022.69 1022.81 1022.89 1022.77 1022.69 1022.69 1022.53 1022.69 1022.69 1022.69 1022.53 1022.33 1022.37 1022.65 1023.01 1023.09 1023.13 1023.37 1023.57 1023.81 1023.97 1023.93 1023.89 1023.69 1023.49 1023.17 1023.33
1022.65 1021.53 1021.45 1021.37 1021.01 1020.81 1021.09 1021.25 1021.29 1021.33 1021.33 1021.37 1021.33 1021.13 1020.97 1020.73 1020.53 1020.45 1020.05 1019.73 1019.77 1020.21 1020.53 1020.69 1020.81 1020.73 1020.61 1020.61 1020.45 1020.41 1020.45 1020.41 1020.21 1020.21 1020.37 1020.37 1020.45 1020.41 1020.41 1020.65 1020.93 1021.17 1021.37 1021.65 1021.93 1022.09 1022.29 1022.41 1022.45 1022.49 1022.53 1022.13 1021.97 1022.09 1022.69 1022.81 1022.89 1022.89 1022.89 1022.89 1022.93 1023.09 1023.13 1023.25 1023.37 1023.57 1023.77 1023.81 1023.69 1023.69 1023.85 1023.73 1023.49 1023.45
1022.05 1021.93 1021.85 1021.81 1021.73 1021.61 1021.61 1021.65 1021.65 1021.69 1021.69 1021.49 1021.33 1021.05 1020.81 1020.61 1020.33 1020.09 1019.73 1019.93 1020.05 1020.09 1020.05 1020.33 1020.45 1020.45 1020.57 1020.73 1020.65 1020.53 1020.69 1020.77 1020.73 1020.69 1020.69 1020.61 1020.57 1020.61 1020.89 1021.13 1021.13 1021.13 1021.25 1021.45 1021.61 1021.81 1021.89 1022.05 1021.81 1021.85 1021.85 1021.61 1021.61 1021.57 1022.29 1023.09 1023.13 1023.21 1023.33 1023.13 1023.17 1023.09 1023.17 1023.33 1023.53 1023.73 1023.65 1023.49 1023.29 1023.37 1023.45 1023.53 1023.69 1023.57
1022.37 1022.41 1022.61 1022.53 1022.33 1022.21 1022.05 1021.93 1021.89 1021.93 1021.81 1021.65 1021.45 1021.29 1021.01 1020.73 1020.57 1020.41 1020.01 1019.73 1020.01 1020.29 1020.41 1020.41 1020.33 1020.25 1020.21 1020.41 1020.65 1020.77 1021.01 1021.13 1021.17 1021.21 1021.29 1021.33 1021.49 1021.61 1021.53 1021.57 1021.69 1021.77 1021.85 1021.93 1022.01 1021.97 1022.01 1021.93 1021.93 1021.81 1021.85 1021.77 1021.57 1021.29 1022.73 1023.37 1023.29 1023.17 1023.33 1023.41 1023.33 1023.33 1023.17 1023.33 1023.57 1023.61 1023.41 1023.05 1023.09 1022.97 1023.09 1023.29 1023.49 1023.81
1022.45 1022.57 1022.57 1022.37 1022.21 1022.09 1022.09 1022.01 1022.05 1022.05 1021.89 1021.85 1021.89 1021.69 1021.61 1021.61 1021.41 1021.29 1021.21 1021.05 1020.57 1020.49 1020.61 1020.77 1020.89 1020.89 1020.81 1020.77 1020.89 1021.01 1021.25 1021.33 1021.41 1021.49 1021.49 1021.53 1021.65 1021.81 1021.85 1021.89 1022.05 1022.05 1021.97 1022.41 1022.37 1022.25 1022.13 1022.17 1022.21 1022.21 1022.01 1021.93 1021.93 1022.61 1022.81 1022.65 1022.73 1022.69 1023.17 1023.41 1023.33 1023.29 1023.25 1023.37 1023.45 1023.29 1023.09 1023.01 1022.93 1022.93 1023.01 1023.17 1023.57 1023.77
1022.89 1022.77 1022.61 1022.57 1022.49 1022.41 1022.33 1022.33 1022.33 1022.37 1022.49 1022.45 1022.33 1022.29 1022.29 1022.13 1022.09 1022.09 1022.01 1021.89 1021.77 1021.57 1021.25 1021.29 1021.45 1021.53 1021.41 1021.29 1021.33 1021.45 1021.53 1021.53 1021.57 1021.61 1021.65 1021.69 1021.85 1021.89 1021.93 1021.85 1021.73 1021.65 1021.77 1022.13 1022.25 1022.25 1022.13 1021.93 1022.01 1022.01 1021.89 1022.25 1022.77 1022.85 1022.73 1022.65 1022.33 1022.73 1023.09 1023.45 1023.45 1023.45 1023.41 1023.45 1023.53 1023.53 1023.41 1023.17 1022.89 1023.05 1023.05 1023.17 1023.49 1023.77
1023.45 1023.17 1023.09 1023.09 1023.05 1023.01 1022.97 1022.89 1022.81 1022.85 1022.89 1022.77 1022.73 1022.85 1022.77 1022.65 1022.73 1022.65 1022.53 1022.49 1022.29 1022.09 1021.93 1021.93 1022.01 1022.01 1021.89 1021.81 1021.85 1021.81 1021.81 1021.85 1021.89 1021.93 1021.89 1021.93 1022.05 1022.09 1022.09 1022.01 1022.13 1022.17 1022.29 1022.65 1022.61 1022.41 1022.13 1022.61 1022.73 1022.61 1022.45 1022.57 1022.65 1022.69 1022.73 1022.61 1022.37 1022.61 1023.21 1023.25 1023.45 1023.57 1023.61 1023.61 1023.57 1023.53 1023.53 1023.45 1023.33 1023.29 1023.21 1023.05 1022.85 1023.21
1023.85 1023.61 1023.37 1023.33 1023.25 1023.21 1023.05 1023.13 1023.17 1023.25 1023.25 1023.25 1023.37 1023.37 1023.29 1023.29 1023.21 1023.01 1022.81 1022.73 1022.57 1022.37 1022.29 1022.29 1022.29 1022.21 1022.17 1022.13 1022.05 1022.13 1022.25 1022.25 1022.21 1022.21 1022.29 1022.37 1022.45 1022.37 1022.37 1022.29 1022.49 1022.61 1022.73 1022.97 1022.93 1022.61 1022.57 1022.57 1022.61 1022.65 1022.57 1022.65 1022.85 1022.73 1022.37 1022.17 1022.41 1022.33 1022.61 1023.17 1023.45 1023.61 1023.73 1023.77 1023.77 1023.69 1023.57 1023.61 1023.61 1023.65 1023.41 1023.01 1022.89 1023.01
1023.97 1023.69 1023.45 1023.45 1023.53 1023.57 1023.57 1023.61 1023.61 1023.61 1023.69 1023.65 1023.73 1023.69 1023.57 1023.45 1023.33 1023.17 1023.17 1023.21 1023.17 1023.13 1023.09 1023.09 1022.97 1022.85 1022.81 1022.73 1022.65 1022.53 1022.49 1022.49 1022.45 1022.49 1022.61 1022.61 1022.65 1022.69 1022.61 1022.49 1022.57 1022.73 1022.65 1022.49 1022.49 1022.53 1022.49 1022.57 1022.73 1022.81 1022.77 1022.85 1022.81 1022.73 1022.81 1022.85 1022.77 1022.53 1022.57 1022.65 1023.09 1023.29 1023.41 1023.49 1023.49 1023.49 1023.73 1023.93 1024.05 1024.05 1024.01 1023.93 1023.85 1023.69
1024.37 1024.13 1023.93 1023.97 1023.97 1024.01 1024.01 1024.05 1024.13 1024.05 1024.01 1023.93 1023.81 1023.77 1023.73 1023.69 1023.69 1023.73 1023.65 1023.65 1023.65 1023.69 1023.61 1023.61 1023.57 1023.33 1023.17 1023.09 1023.13 1023.17 1023.21 1023.21 1023.13 1022.97 1022.81 1022.61 1022.49 1022.49 1022.53 1022.73 1022.81 1022.85 1022.81 1022.65 1022.57 1022.53 1022.61 1022.69 1022.77 1022.77 1022.73 1022.73 1022.65 1022.69 1022.77 1022.77 1022.61 1022.45 1022.37 1022.57 1023.05 1023.13 1023.09 1023.09 1023.29 1023.49 1023.61 1023.73 1023.85 1024.01 1024.13 1024.21 1024.25 1024.25
1024.93 1024.69 1024.57 1024.65 1024.61 1024.61 1024.61 1024.49 1024.49 1024.41 1024.25 1023.97 1023.73 1023.77 1023.81 1023.85 1023.93 1024.01 1024.13 1024.05 1024.05 1024.01 1023.97 1023.89 1023.81 1023.69 1023.53 1023.33 1023.41 1023.69 1023.77 1023.73 1023.61 1023.45 1023.21 1023.09 1023.05 1023.09 1023.13 1023.13 1023.17 1023.13 1023.01 1022.93 1022.81 1022.77 1022.65 1022.57 1022.53 1022.49 1022.57 1022.53 1022.57 1022.61 1022.53 1022.53 1022.61 1022.73 1022.57 1022.53 1022.73 1022.73 1022.69 1022.85 1023.17 1023.29 1023.37 1023.37 1023.41 1023.61 1023.77 1023.93 1024.09 1024.13
Wind_Speed
7 6 5 3 4 4 1 2 3 4 3 0 2 3 5 5 6 7 7 5 7 7 7 7 8 8 8 8 9 9 9 10 10 8 8 7 6 6 6 6 6 6 5 5 4 4 4 5 5 5 5 5 5 5 5 5 5 5 6 7 7 7 7 7 5 7 7 8 8 8 8 8 10 10
5 5 6 7 3 2 2 7 5 4 3 2 3 7 6 5 5 5 7 7 5 7 6 7 8 9 9 8 8 8 9 13 12 9 8 8 7 9 7 7 6 5 5 4 4 3 3 2 2 3 3 3 2 2 2 2 2 3 4 5 5 6 7 7 6 6 7 7 8 9 9 10 10 11
5 5 6 5 5 5 7 6 8 7 6 7 7 4 4 4 5 5 6 7 5 6 6 7 9 9 10 8 8 8 9 11 10 6 8 8 11 11 7 8 7 6 6 5 4 3 3 2 2 1 1 1 0 1 2 1 1 1 3 3 4 4 5 6 7 6 7 7 8 8 9 10 10 11
4 6 6 6 6 7 7 4 6 8 8 8 6 5 5 4 4 6 5 6 8 5 6 7 9 10 9 9 8 9 8 8 12 6 7 10 13 8 7 9 9 8 7 6 4 4 3 2 2 3 2 1 1 2 1 3 3 1 3 2 2 3 4 5 6 6 7 8 8 9 9 9 10 10
5 5 6 6 6 6 5 5 6 8 8 6 6 5 5 5 5 5 3 8 8 6 4 7 8 9 9 9 9 9 9 9 7 8 9 11 8 8 7 9 12 11 10 8 6 5 4 3 3 3 3 2 2 2 2 2 2 2 3 2 2 2 2 4 5 6 7 8 8 8 9 9 9 9
3 4 5 6 6 5 6 7 6 7 9 9 6 6 8 5 6 6 7 9 8 8 6 6 8 9 8 8 9 9 9 9 9 9 9 8 9 8 8 9 9 16 13 11 9 6 6 5 5 5 4 3 3 2 3 3 2 3 4 3 0 1 3 4 4 5 6 7 8 8 8 9 9 10
5 4 5 6 6 4 6 4 5 5 7 8 10 9 8 6 6 7 3 10 8 8 7 7 8 8 8 7 9 10 9 9 9 9 9 9 8 8 8 8 8 16 13 13 10 9 8 7 7 6 5 4 4 4 4 4 4 5 5 3 3 2 2 3 4 4 5 6 7 7 7 8 9 10
4 5 4 5 6 7 6 5 6 7 7 7 6 7 4 6 7 4 3 9 8 7 8 8 8 9 8 7 8 9 9 9 9 8 8 8 8 8 8 7 7 12 14 13 10 10 9 8 8 7 6 6 5 5 5 6 6 6 5 5 3 3 4 3 2 2 3 4 6 6 7 7 8 10
1 4 6 5 7 7 7 6 6 7 8 8 7 6 6 7 4 2 2 8 10 8 8 7 6 9 8 8 8 9 9 10 9 9 9 9 8 8 7 2 7 12 11 10 10 10 9 9 9 9 8 7 7 7 7 7 7 6 6 5 4 5 4 3 3 2 3 2 4 5 6 7 8 10
1 3 5 6 6 7 7 7 7 7 9 8 8 8 8 7 7 4 5 4 5 10 8 7 6 7 8 8 7 8 9 8 8 8 8 8 7 7 7 6 7 7 6 6 5 5 6 9 9 10 9 9 8 8 8 8 7 7 7 6 7 6 6 5 4 3 1 1 2 3 5 7 8 10
2 2 4 5 6 5 5 6 6 8 7 5 6 6 5 6 9 7 6 6 4 5 7 9 7 7 7 6 7 7 7 8 7 7 7 7 7 7 7 7 7 6 7 8 9 8 8 11 9 10 9 10 9 9 9 9 8 8 8 8 7 6 5 4 3 2 1 0 1 2 3 4 6 8
1 1 2 3 4 4 2 5 6 6 7 5 6 6 6 5 8 7 6 6 6 7 6 5 6 6 6 7 6 7 8 7 7 7 7 7 7 7 7 7 7 6 6 7 6 4 4 9 7 9 7 9 10 10 9 9 9 9 9 8 7 6 5 4 3 2 1 1 1 1 2 3 4 6
3 1 2 3 8 2 5 11 8 6 6 1 5 3 2 3 2 6 5 6 6 6 7 6 6 6 7 6 7 6 6 7 7 7 7 6 6 6 6 7 8 7 7 7 7 8 9 9 8 7 7 7 9 10 11 9 9 10 9 8 8 6 5 4 3 2 1 1 2 2 3 4 5 6
4 3 4 6 8 8 7 6 4 7 8 9 6 3 3 5 5 5 6 6 7 7 7 7 7 8 7 7 7 8 8 7 7 6 6 7 7 6 7 7 7 8 8 8 8 8 9 9 8 9 9 9 11 8 9 8 9 10 10 9 7 6 5 4 3 2 1 2 2 3 3 4 5 6
4 3 5 6 4 4 5 4 7 5 7 7 8 7 6 5 2 4 6 6 5 5 7 7 7 7 8 8 8 8 8 7 7 6 6 7 7 7 8 8 6 8 8 8 8 8 8 9 9 9 9 10 10 10 10 13 15 13 11 9 7 6 5 4 4 3 3 2 2 3 3 4 5 6
4 5 4 5 4 3 3 5 5 3 2 2 3 5 8 9 6 2 0 3 5 6 7 6 7 8 8 7 7 7 7 7 7 7 7 7 8 8 8 8 9 4 7 8 9 9 7 10 9 8 7 9 10 7 11 18 17 14 11 9 8 6 5 5 4 4 3 2 2 4 4 5 6 6
2 4 4 4 3 4 5 4 5 7 6 3 2 1 2 5 6 10 5 3 2 5 6 6 7 6 5 7 8 7 6 5 6 6 8 8 8 8 9 10 8 5 9 9 9 9 8 8 9 8 7 3 7 9 13 16 15 14 11 10 8 6 6 4 4 3 3 2 3 4 5 5 6 7
2 2 2 3 4 4 4 4 4 4 5 6 6 4 5 5 7 8 10 11 7 4 4 6 6 6 6 7 6 5 5 6 7 7 8 7 8 9 10 7 8 3 9 9 8 8 8 8 7 8 7 6 9 8 12 16 15 15 13 11 9 8 6 5 4 4 4 4 4 4 5 6 6 7
2 2 2 4 3 2 2 4 4 3 4 5 4 5 6 7 7 7 7 7 6 6 5 7 8 7 8 7 7 6 6 7 7 7 8 8 8 8 8 4 3 5 8 8 8 9 8 6 7 8 7 7 8 8 13 16 15 15 13 11 10 8 8 6 7 6 6 5 4 5 6 6 7 7
3 4 4 4 5 2 8 11 14 11 7 5 7 6 7 7 7 8 7 7 9 8 8 8 8 7 1 3 2 3 3 4 5 6 7 7 7 8 8 10 7 7 7 8 8 8 8 6 8 8 7 7 8 8 7 12 15 15 14 13 11 10 9 9 8 8 7 6 6 6 7 6 6 8
3 2 2 3 3 6 6 10 12 13 10 5 7 8 8 8 9 9 6 9 13 17 13 6 1 0 2 5 4 4 3 3 4 5 7 9 8 9 10 9 11 9 7 7 9 8 8 8 8 8 7 7 8 7 8 8 12 14 14 13 12 11 11 10 9 9 9 9 9 8 8 6 6 9
3 7 10 5 4 8 7 9 13 13 9 5 7 8 9 10 10 10 8 2 5 7 8 7 7 6 7 6 6 6 7 6 3 7 10 9 8 7 9 11 8 7 6 8 7 7 9 7 6 7 6 6 5 6 4 8 8 11 11 13 14 13 11 11 11 12 11 10 9 9 7 6 6 7
4 6 11 15 13 10 8 11 11 12 9 5 6 7 8 9 10 7 6 4 4 6 7 9 8 9 9 9 8 9 13 12 8 8 10 9 10 8 9 11 8 12 10 7 11 8 7 8 6 7 6 8 7 7 7 8 8 8 8 8 9 12 11 12 13 13 12 10 9 7 6 7 6 6
5 2 9 10 12 11 11 10 10 10 10 6 7 7 7 8 7 8 9 8 7 6 7 10 11 12 10 8 9 10 9 9 10 10 10 10 10 12 11 10 10 11 9 4 13 9 5 6 7 8 7 6 5 6 6 7 8 7 8 8 9 12 13 12 12 14 11 10 9 7 8 10 9 5
5 5 7 6 9 9 9 8 7 7 6 5 5 6 7 7 7 10 9 11 12 11 9 10 11 12 11 9 9 9 9 9 9 9 10 10 10 10 10 11 11 9 3 4 14 7 6 6 7 6 6 6 2 3 4 4 4 5 7 6 4 8 8 8 8 8 13 12 10 9 9 11 12 8
5 6 5 7 10 11 9 9 9 9 7 7 4 6 9 12 12 8 8 9 9 10 10 12 10 10 11 12 9 10 10 9 7 6 7 7 6 4 2 3 2 5 2 3 8 6 4 5 7 7 6 5 4 3 3 4 4 5 6 5 3 4 8 7 3 4 4 7 7 8 8 13 14 12
6 5 5 7 12 12 13 12 11 8 8 8 6 9 10 11 11 9 6 7 7 8 8 8 8 9 9 7 11 5 9 6 2 4 2 2 2 2 5 4 3 3 5 6 4 4 5 5 4 6 6 5 4 4 4 4 4 5 5 4 5 5 4 2 4 4 4 3 4 13 15 16 15 12
6 6 8 9 12 12 12 11 11 13 11 7 11 11 11 11 9 6 7 7 7 7 8 9 9 10 10 10 9 6 10 8 5 3 3 2 1 2 3 5 6 5 6 6 5 3 2 4 5 4 4 4 4 4 4 3 4 3 4 4 4 3 3 4 4 4 4 3 5 4 5 6 4 7
6 9 9 11 13 13 14 13 13 10 11 14 11 10 11 8 5 6 7 7 7 8 8 9 10 10 11 10 11 5 1 4 2 3 3 3 4 7 8 7 6 5 4 4 4 4 4 4 5 4 3 2 2 1 1 2 1 3 3 2 3 4 6 6 3 3 4 4 5 5 5 4 5 4
11 10 10 12 12 12 10 9 7 7 7 7 5 7 8 6 7 8 8 7 7 8 9 9 10 10 9 10 5 4 2 4 5 4 5 4 4 4 4 5 5 5 5 4 5 6 5 5 5 5 4 2 1 1 1 3 3 2 2 3 4 3 5 4 3 3 4 5 4 5 5 5 1 1
6 6 6 9 12 14 16 16 14 13 13 11 10 8 9 9 8 7 7 7 7 9 10 9 9 9 9 9 1 3 2 4 6 5 5 4 4 5 4 5 5 4 4 4 4 5 6 5 5 4 3 3 2 3 3 1 1 2 3 3 4 4 3 3 4 4 4 4 4 5 6 3 6 3
9 9 10 11 10 9 9 8 7 7 8 8 8 7 7 6 7 7 4 1 7 9 10 10 10 10 9 10 9 7 3 2 3 4 5 4 4 6 6 5 5 5 4 4 4 5 6 5 3 2 1 1 3 4 5 3 3 4 4 5 6 4 3 4 4 3 2 3 5 6 6 4 3 1
9 8 8 6 6 6 4 4 6 6 6 5 9 10 9 8 7 8 7 7 7 8 8 8 8 8 7 8 8 7 4 5 4 4 4 5 6 6 6 6 6 6 6 5 4 3 3 4 3 1 1 2 2 2 2 4 4 4 4 5 5 4 3 4 3 3 2 4 5 6 6 4 2 3
6 6 4 4 3 4 4 4 5 5 5 6 6 6 8 8 9 8 8 7 7 7 6 7 6 5 4 5 5 6 6 6 8 3 1 3 5 6 5 5 5 5 5 5 4 4 3 3 3 2 1 1 2 3 3 4 4 4 4 4 4 3 3 3 3 2 1 3 5 5 5 6 1 4
5 6 5 3 3 3 5 4 4 5 5 6 6 6 6 8 9 8 8 8 4 3 3 3 3 3 4 4 3 4 4 6 5 2 2 2 2 3 4 5 6 5 5 5 5 5 4 5 5 5 5 6 5 6 6 5 3 4 4 4 3 3 3 2 2 2 3 4 4 4 3 5 4 3
5 3 4 3 4 4 4 4 5 5 5 5 5 5 6 5 5 6 7 6 6 4 3 3 3 3 3 4 3 2 2 0 2 3 3 4 3 4 4 5 7 6 6 6 5 5 6 5 6 5 5 4 4 3 5 5 3 3 3 1 3 3 3 3 2 2 3 4 4 3 3 3 5 4
3 3 4 5 6 6 4 4 5 7 7 8 6 6 6 6 5 8 7 0 4 4 3 2 3 4 3 3 3 1 0 0 1 1 1 2 3 3 3 3 4 5 5 4 4 4 3 3 5 5 4 3 2 2 2 2 3 5 2 1 1 2 2 1 0 1 4 5 4 4 3 3 3 4
3 3 5 5 6 6 6 7 5 5 6 6 7 6 8 8 9 10 10 9 4 2 3 3 4 4 3 3 3 1 1 1 2 2 3 3 3 3 4 4 3 4 4 3 1 1 3 2 2 2 2 2 2 1 2 1 2 3 4 4 2 1 1 1 2 3 3 4 4 4 3 3 2 4
5 5 5 5 5 6 5 5 4 6 7 7 7 6 6 8 8 8 7 7 8 5 3 4 4 5 5 4 3 3 2 2 2 3 3 3 4 4 3 3 2 4 4 4 2 2 2 3 3 2 2 1 1 2 1 1 3 3 5 10 5 1 1 1 3 3 3 3 3 2 2 2 6 8
6 5 5 6 6 6 7 7 7 7 7 7 7 7 7 6 5 5 5 5 6 6 4 4 4 5 4 3 2 1 2 3 3 3 3 3 3 2 2 2 2 2 3 3 2 2 3 2 1 1 0 3 3 2 3 2 1 5 3 5 6 2 1 1 2 2 3 5 4 2 3 1 3 3
5 6 6 6 6 6 6 6 6 6 6 7 7 7 7 7 6 5 5 5 4 4 4 4 3 3 2 1 0 2 3 3 3 3 3 3 3 2 2 3 2 2 2 2 0 1 1 5 1 2 5 3 2 1 2 3 3 3 4 3 4 3 1 1 2 2 2 4 5 4 4 4 3 1
5 5 5 5 5 6 6 6 7 7 7 7 5 5 5 5 4 6 4 4 4 4 3 2 2 1 0 1 2 3 3 3 3 3 3 3 3 3 2 1 2 1 2 3 2 2 4 3 3 2 1 1 1 2 2 2 1 1 2 4 2 3 5 5 5 3 2 2 2 3 4 5 2 3
6 5 5 6 6 6 6 6 7 6 5 6 5 5 4 5 5 5 4 5 5 5 5 5 4 5 5 6 5 4 3 3 3 3 3 3 2 2 1 1 2 1 0 1 2 1 1 1 1 0 1 2 2 1 1 0 2 2 2 3 4 4 3 6 6 4 0 2 1 1 2 3 3 4
6 6 6 6 6 6 6 6 6 6 5 4 5 5 5 5 6 6 5 4 5 5 4 4 4 5 6 6 6 6 6 5 4 4 3 2 2 2 2 2 2 1 0 0 0 1 1 1 1 1 1 2 2 2 2 2 2 1 2 3 3 1 2 2 2 2 2 4 6 7 8 7 3 2
6 6 6 6 5 4 4 4 4 6 4 4 4 4 4 4 4 5 5 5 6 6 6 5 4 4 4 5 5 6 4 4 2 2 2 2 3 3 2 2 2 1 1 1 0 1 1 1 1 1 2 2 2 2 2 1 1 1 1 0 1 2 2 3 2 3 3 3 8 12 10 8 6 5
Wind_Direction
207 212 189 221 181 223 201 279 172 166 168 335 258 327 216 196 157 161 155 150 134 163 153 147 136 142 134 127 129 142 147 147 179 146 142 144 148 135 127 116 106 104 107 103 105 94 80 64 56 61 50 54 56 53 54 48 50 53 65 62 56 47 42 30 43 51 44 45 45 38 27 22 16 12
198 209 178 200 168 187 244 186 179 147 148 102 317 241 203 192 175 163 162 138 165 148 162 147 146 150 141 139 149 151 144 167 202 145 149 153 150 149 148 136 134 130 131 130 124 129 110 93 52 64 61 47 50 32 30 52 39 67 74 59 60 59 47 29 24 39 38 35 31 27 18 13 6 1
201 200 205 178 168 180 210 199 165 141 165 150 227 228 173 186 174 208 156 144 149 151 171 145 150 151 149 155 155 155 145 173 213 168 154 158 135 158 161 162 160 165 160 153 158 162 165 158 168 155 135 208 203 239 245 254 260 153 90 38 55 59 51 36 19 24 25 20 19 16 8 2 359 354
201 199 201 193 180 195 193 202 173 155 165 158 199 186 190 215 206 213 211 158 137 171 160 145 148 151 155 159 162 151 152 163 206 190 177 132 145 180 170 180 178 180 182 177 176 193 172 183 186 181 191 165 254 256 264 261 245 143 108 79 50 49 46 38 22 12 16 11 8 5 359 354 350 344
218 219 205 191 202 187 197 183 192 167 160 158 173 182 204 217 203 243 165 127 143 155 143 149 155 152 162 168 170 161 155 168 195 221 146 145 168 189 194 177 185 187 186 182 184 180 188 191 202 181 179 178 227 230 229 227 241 159 156 144 68 13 27 32 40 16 5 2 356 350 346 344 338 334
215 220 216 201 197 201 191 202 186 186 168 164 163 194 219 168 200 236 179 131 144 153 160 163 158 152 182 173 181 164 166 172 189 204 167 170 192 202 210 184 181 187 183 181 181 179 184 181 184 185 188 213 201 204 213 188 198 181 161 152 128 5 28 18 29 17 4 355 349 342 339 335 331 324
187 213 209 197 191 181 198 187 199 190 189 177 179 182 206 149 181 219 188 134 152 161 169 168 167 164 182 203 176 181 173 178 191 207 194 185 195 211 212 214 171 176 179 178 174 182 178 177 183 181 186 184 178 180 168 159 158 161 158 159 165 129 79 55 36 21 1 348 342 340 333 331 324 322
159 202 204 195 185 181 187 188 196 191 185 197 156 199 164 136 190 232 150 146 149 173 163 184 177 169 175 214 194 185 179 180 192 207 210 199 201 214 197 221 153 169 170 170 171 171 174 177 179 179 178 176 172 159 152 149 150 156 158 163 157 113 106 89 80 30 4 349 342 340 345 337 330 329
200 186 210 186 190 187 178 185 200 185 191 194 167 186 173 155 167 155 177 167 157 168 175 179 206 162 182 198 211 190 187 183 196 208 214 204 212 205 212 136 106 132 156 157 162 168 173 180 180 179 175 171 166 161 152 147 145 146 144 139 126 122 117 116 101 75 38 6 343 347 346 343 336 335
180 190 225 189 191 192 177 187 188 189 188 198 163 198 190 182 142 176 197 251 176 171 176 178 206 179 183 191 212 203 194 192 193 206 212 224 212 207 204 151 140 154 169 177 159 169 182 184 182 177 175 174 167 160 154 147 143 141 139 133 128 124 116 107 92 91 48 20 358 348 346 351 346 343
243 180 213 185 207 181 195 176 182 179 188 209 171 199 201 222 145 170 199 199 207 210 192 180 190 195 191 199 197 220 200 200 207 200 215 221 214 216 215 198 159 170 174 175 166 180 210 171 185 176 176 173 167 162 158 154 146 144 141 134 129 128 131 137 152 153 156 82 356 344 341 343 345 343
319 302 160 223 102 352 52 175 181 190 182 204 187 190 200 239 149 174 192 214 202 197 227 221 188 203 202 188 221 220 201 210 210 218 215 217 217 216 204 216 209 186 184 182 180 146 152 158 153 155 175 175 171 165 161 161 149 151 147 144 145 148 154 161 156 167 180 229 274 303 323 323 328 331
226 177 164 94 72 128 33 31 31 39 21 195 201 193 210 251 194 182 198 210 223 219 218 217 223 216 209 218 199 217 225 211 223 215 220 232 227 224 220 205 219 217 195 202 200 192 191 186 183 184 191 181 177 180 182 162 164 158 156 158 156 152 156 156 171 167 201 264 269 309 332 329 324 326
223 187 94 71 93 107 109 88 11 33 34 30 30 10 213 209 220 211 223 220 216 223 221 220 221 220 226 217 205 208 220 216 217 235 225 230 230 231 241 240 208 208 216 217 223 214 189 202 193 195 205 175 181 187 195 183 174 165 163 159 155 161 159 166 171 195 237 269 303 313 319 318 312 308
204 219 126 114 110 106 84 90 56 39 34 26 16 14 19 30 16 248 217 224 251 230 223 224 223 226 225 225 221 208 211 211 225 232 240 243 238 235 241 245 228 199 208 217 234 239 189 194 216 205 213 169 188 192 199 168 155 158 162 158 162 166 173 184 188 214 228 259 273 292 282 303 300 304
196 204 169 162 157 148 62 124 152 131 116 58 16 7 352 348 339 84 298 272 240 232 242 235 231 224 225 225 221 229 225 219 214 224 238 244 244 241 241 248 257 249 177 209 226 239 222 187 218 221 221 162 188 182 136 145 149 157 160 161 162 172 182 191 208 211 236 252 294 295 298 298 304 307
195 188 183 185 207 126 107 217 194 171 165 171 135 256 295 275 281 293 276 211 239 335 311 267 248 251 249 237 227 223 230 218 233 228 227 231 244 249 250 247 254 243 166 194 220 231 233 214 205 225 233 176 116 117 138 140 150 157 161 162 170 169 190 207 215 230 237 255 264 287 290 295 302 301
256 274 261 211 200 198 196 231 249 265 181 159 184 192 214 227 210 221 251 262 255 216 257 282 281 265 258 258 260 261 265 250 236 237 247 246 244 247 252 262 262 255 153 197 209 231 232 223 201 220 223 192 140 153 150 156 158 164 164 166 164 182 192 201 215 228 235 239 258 274 286 289 292 292
249 241 269 293 299 249 243 3 6 255 270 252 243 239 230 232 238 223 216 212 228 228 236 249 258 269 277 273 266 257 241 240 245 245 252 253 255 257 261 241 158 154 182 199 210 241 237 203 198 223 215 216 202 150 158 164 165 166 165 165 177 180 192 191 203 215 224 232 242 258 268 279 282 287
240 237 235 239 242 306 59 11 20 19 354 304 274 261 253 254 248 247 233 204 199 222 226 231 238 252 253 53 2 2 332 267 246 234 238 247 252 250 245 241 214 209 191 201 211 232 241 196 198 222 220 213 218 143 162 170 170 168 167 173 176 187 188 198 201 208 212 221 232 245 256 259 275 280
243 236 13 12 334 68 59 20 23 14 1 297 279 268 270 262 258 257 238 190 196 203 213 229 233 190 251 284 295 292 292 303 326 275 249 233 230 242 246 255 254 233 209 192 214 236 247 235 218 223 224 215 220 179 172 169 177 172 173 178 183 187 196 193 201 208 212 217 226 232 242 253 265 280
259 84 59 35 33 72 51 29 35 16 359 295 284 280 276 277 271 266 273 339 348 358 340 315 298 292 279 273 281 275 267 267 273 237 243 242 241 254 266 257 249 264 220 197 201 221 240 246 209 221 228 221 210 221 198 153 167 175 177 190 193 197 197 198 209 215 213 219 223 232 244 260 282 280
275 103 55 52 52 63 50 38 35 29 8 334 305 308 291 277 273 292 341 322 256 255 293 292 280 271 252 242 237 238 224 219 218 232 241 248 249 243 243 255 263 262 256 188 169 211 228 231 200 200 219 231 214 201 223 156 167 177 195 198 203 201 197 204 220 220 220 221 225 228 242 254 251 280
309 107 108 69 60 59 44 37 28 23 22 355 334 318 301 284 288 6 333 317 307 267 225 249 252 251 249 231 218 228 217 200 210 218 225 235 243 249 250 247 250 258 257 146 169 192 219 217 227 186 220 235 231 193 193 165 168 183 200 205 192 194 200 218 231 231 224 218 213 220 228 236 240 289
297 287 95 94 63 54 46 41 28 24 13 2 317 301 285 311 348 329 315 316 321 300 274 246 248 254 254 253 245 226 222 210 202 206 215 224 234 242 254 259 257 256 315 156 167 185 206 202 205 176 214 231 260 151 182 216 197 194 208 224 232 158 191 215 227 227 206 211 205 208 227 240 244 246
301 310 61 65 17 17 21 15 5 355 347 337 296 287 293 308 321 324 304 295 293 290 289 274 260 249 248 256 260 244 234 229 203 199 203 217 227 253 358 4 333 290 154 175 153 190 198 183 200 186 186 186 199 195 193 208 207 221 224 206 207 202 192 222 249 299 180 176 198 199 222 237 240 237
321 313 344 43 23 -0 354 347 344 338 330 305 285 284 296 302 317 318 297 302 298 289 289 294 294 296 290 271 257 291 310 286 146 195 190 173 178 89 70 42 20 50 109 150 197 218 223 195 176 169 181 183 193 194 214 228 224 215 217 181 210 237 243 201 236 261 303 234 221 181 213 229 232 218
308 332 355 346 351 346 337 327 323 320 305 275 271 282 287 293 297 286 285 275 275 280 277 274 273 269 272 282 282 242 233 242 203 188 150 113 122 168 117 91 72 77 115 145 167 200 191 146 136 132 140 168 193 204 220 198 225 225 201 213 237 262 280 257 255 272 276 274 272 238 226 243 201 197
335 345 333 339 330 324 316 304 297 282 269 261 252 237 242 243 258 260 265 272 272 271 269 268 268 266 263 263 265 287 46 358 352 187 158 140 83 69 72 66 68 65 62 94 116 112 111 123 129 129 124 114 173 228 314 273 232 220 233 238 241 213 234 239 259 284 270 277 285 283 294 293 283 283
309 304 296 288 279 279 275 281 280 283 289 308 286 242 219 235 252 262 266 269 266 267 272 274 274 277 281 280 304 47 50 152 167 167 153 136 131 144 127 107 75 56 53 78 93 91 83 87 107 119 116 102 100 225 241 243 243 271 250 233 238 272 278 289 290 252 248 263 282 297 292 293 19 22
261 282 286 297 294 288 285 279 276 275 279 281 268 248 233 238 244 244 258 272 292 296 290 285 283 285 290 290 328 274 182 179 190 186 170 179 183 170 158 131 117 100 77 65 73 83 94 89 93 112 132 153 181 203 228 119 312 260 250 225 224 246 255 171 185 235 279 296 300 294 278 252 116 134
322 311 292 278 260 256 250 249 241 238 240 243 250 279 290 274 267 307 66 309 274 277 279 285 290 290 290 284 270 268 229 188 193 168 189 156 179 152 132 120 142 134 121 85 65 62 72 90 96 93 123 208 195 197 187 172 208 242 247 248 243 250 271 291 285 285 296 316 290 281 278 275 227 212
306 298 292 296 306 306 310 312 320 331 335 334 328 323 316 312 311 301 291 291 288 286 285 278 282 284 285 282 279 268 253 234 202 180 186 201 177 165 173 184 168 165 157 148 116 98 89 85 67 52 177 198 252 296 268 213 211 214 239 257 249 232 223 232 243 264 316 298 284 284 291 293 135 131
297 290 293 283 292 322 332 334 332 331 330 327 321 315 316 306 293 292 292 298 307 326 327 319 314 307 303 306 294 289 290 281 271 277 263 197 150 173 180 158 155 144 142 138 135 133 137 146 157 173 206 261 261 258 249 246 247 243 235 240 250 251 234 246 249 272 344 285 300 299 298 299 80 119
241 254 264 309 336 322 329 329 320 321 319 319 318 312 309 308 311 307 295 285 279 275 278 285 288 292 293 288 297 296 295 277 247 132 107 116 114 136 158 161 151 149 148 143 143 155 157 168 174 180 192 194 196 201 204 238 253 257 248 231 222 227 243 234 246 264 274 281 274 280 292 289 278 143
274 318 344 325 316 333 326 321 316 310 309 307 299 298 299 301 297 300 292 299 275 263 272 283 292 291 290 286 277 259 279 327 175 180 168 180 177 176 164 147 143 148 150 148 157 164 179 179 191 199 198 203 202 218 173 199 300 292 277 253 227 218 240 253 234 252 256 259 260 273 281 289 300 319
307 348 335 343 336 331 329 326 328 325 319 312 313 310 310 305 301 299 303 41 302 305 298 280 283 282 277 283 282 301 63 161 97 87 112 142 152 136 116 97 104 128 137 128 134 145 167 210 213 208 223 231 214 235 105 145 266 303 291 268 252 241 229 138 44 274 263 262 265 258 274 294 291 301
356 347 349 330 334 327 324 321 323 320 314 311 312 317 313 319 328 327 321 322 341 352 344 329 312 299 287 271 261 236 150 101 104 100 89 81 86 75 91 97 91 88 112 115 76 153 194 224 238 268 242 255 255 250 111 149 180 225 223 262 229 252 255 204 235 239 256 264 273 286 293 291 338 71
2 350 336 334 331 330 327 329 328 322 327 336 334 327 337 338 337 344 356 352 345 348 351 347 337 329 322 300 265 233 156 136 122 120 115 106 107 114 118 118 137 184 146 112 136 202 205 212 206 235 255 257 307 62 32 175 211 150 184 208 244 269 252 227 249 268 275 278 273 290 283 101 102 126
358 351 348 348 348 348 350 350 348 349 345 340 332 337 332 337 350 357 356 0 4 359 1 353 354 344 310 286 250 153 104 106 111 109 100 100 104 107 134 176 164 140 140 138 148 177 205 230 51 346 226 53 51 32 4 326 30 119 158 202 233 196 301 321 285 297 303 330 324 291 290 202 200 162
349 352 1 358 353 353 353 350 348 353 346 344 343 347 341 345 356 356 6 5 8 0 11 12 7 331 320 307 149 122 121 99 87 82 87 92 81 84 49 70 99 104 112 103 145 265 61 65 102 63 67 70 11 324 250 234 234 168 169 188 199 229 122 324 283 295 309 338 335 321 289 276 295 207
358 356 3 1 1 1 3 7 4 7 360 4 4 356 359 0 4 345 9 15 16 24 32 29 20 11 48 79 89 89 89 99 101 97 96 99 93 76 39 56 128 143 163 173 180 189 98 103 114 45 57 74 256 253 224 214 237 283 136 148 171 202 196 213 238 232 288 326 330 318 322 316 310 279
10 0 11 18 22 19 19 19 19 22 22 23 22 17 16 15 15 15 29 31 36 36 35 31 34 44 39 33 29 34 61 61 79 93 104 101 101 113 137 143 104 74 342 109 106 79 121 96 87 178 157 182 220 248 266 297 292 268 196 185 157 170 189 205 230 233 214 41 78 259 317 321 313 296
12 4 16 19 23 23 24 30 27 28 29 31 32 35 33 31 32 32 38 50 54 49 38 43 35 42 50 50 47 42 36 33 29 32 46 67 111 106 102 89 84 99 109 116 110 132 149 155 183 203 201 194 211 233 232 255 257 313 336 88 127 190 203 194 198 226 251 241 238 235 243 249 263 2
12 11 19 22 20 28 26 32 35 32 30 30 35 44 47 48 50 52 48 44 40 36 34 30 37 42 50 59 63 57 37 19 17 34 47 52 43 50 65 96 101 122 92 23 290 185 194 206 182 192 214 214 221 233 240 252 355 0 298 266 203 217 240 196 205 220 231 224 210 215 232 231 222 218